Mississauga, Ontario

8:54 AM EST on February 25, 2017 (GMT -0500)
Toronto-Pearson International

Weather History for CYYZ - March, 2013

Change the Weather History Date:

Tuesday, March 19, 2013

  Actual Average Record
Temperature  
Mean Temperature 30 °F -  
Max Temperature 35 °F 48 °F 73 °F (2012)
Min Temperature 24 °F 29 °F 15 °F (1997)
Degree Days  
Heating Degree Days 36    
Moisture  
Dew Point 26 °F    
Average Humidity 82    
Maximum Humidity 100    
Minimum Humidity 64    
Precipitation  
Precipitation 0.04 in 0.08 in - ()
Sea Level Pressure  
Sea Level Pressure 29.70 in    
Wind  
Wind Speed 11 mph ()    
Max Wind Speed 21 mph    
Max Gust Speed 28 mph    
Visibility 6.0 miles    
Events Rain , Snow    
Averages and records for this station are not official NWS values.
T = Trace of Precipitation, MM = Missing Value Source: Averaged Metar Reports

Daily Weather History Graph

Daily Weather History Graph

Search for Another Location

Airport or City:

Trip Planner

Search our weather history database for the weather conditions in past years. The results will help you decide how hot, cold, wet, or windy it might be!

Date:

Astronomy

Mar. 19, 2013 Rise Set
Actual Time 7:23 AM EDT 7:29 PM EDT
Civil Twilight 6:54 AM EDT 7:58 PM EDT
Nautical Twilight 6:21 AM EDT 8:32 PM EDT
Astronomical Twilight 5:46 AM EDT 9:06 PM EDT
Moon 12:01 PM EDT (3/19) 2:25 AM EDT (3/19)
Length of Visible Light 13h 04m
Length of Day
12h 06m
Waxing Crescent, 49% of the Moon is Illuminated
Mar 19
Waxing Crescent
Mar 19
First Quarter
Mar 27
Full
Apr 3
Last Quarter
Apr 10
New

Hourly Weather History & Observations

Time (EDT) Temp. Windchill Dew Point Humidity Pressure Visibility Wind Dir Wind Speed Gust Speed Precip Events Conditions
12:00 AM 32.0 °F 21.6 °F 32.0 °F 100% 29.64 in 3.0 mi ESE 15.0 mph - N/A Rain Light Freezing Rain
12:10 AM 32.0 °F 22.5 °F - N/A% - 3.0 mi ESE 12.7 mph 19.6 mph N/A Rain , Snow Light Rain
12:55 AM 33.8 °F 25.8 °F - N/A% - 1.8 mi ESE 10.4 mph - N/A Rain Light Rain
1:00 AM 33.8 °F 25.3 °F 32.0 °F 93% 29.62 in 2.0 mi SE 11.5 mph 18.4 mph N/A Rain Light Rain
1:14 AM 33.8 °F 25.3 °F - N/A% - 4.0 mi SE 11.5 mph - N/A Rain Light Rain
1:39 AM 33.8 °F 26.4 °F - N/A% - 3.0 mi SE 9.2 mph - N/A Rain Light Rain
2:00 AM 34 °F - 33 °F 96% 29.60 in 3 mi SSE 9.2 mph - - Rain Light Rain
2:00 AM 33.8 °F 26.4 °F 33.8 °F 100% 29.60 in 3.0 mi SSE 9.2 mph - N/A Rain Light Rain
2:49 AM 35.6 °F 29.2 °F - N/A% - 9.0 mi South 8.1 mph - N/A   Overcast
3:00 AM 35.6 °F 29.2 °F 33.8 °F 93% 29.59 in 10.0 mi South 8.1 mph - N/A   Overcast
4:00 AM 35.6 °F 27.5 °F 33.8 °F 93% 29.62 in 15.0 mi SW 11.5 mph 19.6 mph N/A   Overcast
4:35 AM 35.6 °F 28.6 °F - N/A% - 6.0 mi SW 9.2 mph - N/A   Light Drizzle
5:00 AM 35.6 °F 28.6 °F 33.8 °F 93% 29.62 in 5.0 mi SW 9.2 mph - N/A   Light Drizzle
5:23 AM 35.6 °F 29.2 °F - N/A% - 6.0 mi SSW 8.1 mph - N/A   Overcast
5:43 AM 35.6 °F 30.7 °F - N/A% - 5.0 mi SW 5.8 mph - N/A   Light Drizzle
6:00 AM 35.6 °F 29.9 °F 33.8 °F 93% 29.64 in 5.0 mi SSW 6.9 mph - N/A   Light Drizzle
6:18 AM 35.6 °F 29.2 °F - N/A% - 6.0 mi SW 8.1 mph - N/A   Light Drizzle
6:38 AM 35.6 °F 28.0 °F - N/A% - 6.0 mi SW 10.4 mph - N/A   Overcast
7:00 AM 35.6 °F 28.0 °F 32.0 °F 87% 29.65 in 8.0 mi SSW 10.4 mph - N/A   Overcast
8:00 AM 36 °F - 31 °F 74% 29.65 in 12 mi SSW 6.9 mph - -   Partly Cloudy
8:00 AM 35.6 °F 29.2 °F 30.2 °F 81% 29.65 in 12.0 mi SSW 8.1 mph - N/A   Overcast
8:20 AM 35.6 °F 28.0 °F - N/A% - 6.0 mi SSW 10.4 mph - N/A   Light Drizzle
8:28 AM 33.8 °F 26.4 °F - N/A% - 1.8 mi SW 9.2 mph - N/A   Overcast
8:34 AM 33.8 °F 26.4 °F - N/A% - 0.8 mi SSW 9.2 mph - N/A   Unknown
8:38 AM 33.8 °F 27.0 °F - N/A% - 4.0 mi SW 8.1 mph - N/A   Overcast
9:00 AM 33.8 °F 23.2 °F 26.6 °F 75% 29.65 in 10.0 mi SW 17.3 mph - N/A   Overcast
9:48 AM 33.8 °F 23.9 °F - N/A% - 10.0 mi SW 15.0 mph - N/A Snow Light Snow Showers
10:00 AM 33.8 °F 24.3 °F 28.4 °F 81% 29.65 in 10.0 mi SW 13.8 mph 20.7 mph N/A Snow Light Snow Showers
11:00 AM 30.2 °F 18.5 °F 26.6 °F 86% 29.67 in 1.8 mi WSW 17.3 mph 25.3 mph N/A Snow Light Snow Showers
11:08 AM 30.2 °F 19.8 °F - N/A% - 1.8 mi WSW 13.8 mph 20.7 mph N/A Snow Light Snow Showers
11:43 AM 28.4 °F 15.1 °F - N/A% - 2.0 mi West 20.7 mph - N/A Snow Light Snow Showers
12:00 PM 26.6 °F 13.1 °F 23.0 °F 86% 29.68 in 2.5 mi West 19.6 mph 27.6 mph N/A Snow Light Snow Showers
12:13 PM 28.4 °F 15.8 °F - N/A% - 4.0 mi West 18.4 mph - N/A Snow Light Snow Showers
1:00 PM 28.4 °F 16.2 °F 21.2 °F 74% 29.70 in 5.0 mi West 17.3 mph 23.0 mph N/A Snow Light Snow Showers
2:00 PM 28 °F - 21 °F 64% 29.72 in 5 mi West 16.1 mph - - Snow Light Snow Showers
2:00 PM 28.4 °F 15.4 °F 21.2 °F 74% 29.72 in 5.0 mi West 19.6 mph - N/A Snow Light Snow Showers
2:47 PM 28.4 °F 17.5 °F - N/A% - 2.0 mi WSW 13.8 mph - N/A Snow Light Snow Showers
2:52 PM 26.6 °F 13.8 °F - N/A% - 1.2 mi WSW 17.3 mph - N/A Snow Light Snow Showers
3:00 PM 26.6 °F 15.7 °F 23.0 °F 86% 29.73 in 5.0 mi West 12.7 mph 21.9 mph N/A Snow Light Snow Showers
4:00 PM 28.4 °F 16.6 °F 21.2 °F 74% 29.75 in 3.0 mi West 16.1 mph - N/A Snow Light Snow Showers
4:39 PM 26.6 °F 12.7 °F - N/A% - 2.0 mi WSW 20.7 mph - N/A Snow Light Snow Showers
4:43 PM 26.6 °F 13.4 °F - N/A% - 1.0 mi WSW 18.4 mph - N/A Snow Light Snow Showers
4:55 PM 26.6 °F 15.2 °F - N/A% - 5.0 mi West 13.8 mph 21.9 mph N/A Snow Light Snow Showers
5:00 PM 26.6 °F 14.3 °F 19.4 °F 74% 29.77 in 5.0 mi WSW 16.1 mph - N/A Snow Light Snow Showers
6:00 PM 28.4 °F 18.5 °F 21.2 °F 74% 29.78 in 12.0 mi West 11.5 mph - N/A Snow Light Snow Showers
6:38 PM 26.6 °F 15.2 °F - N/A% - 1.0 mi West 13.8 mph - N/A Snow Light Snow Showers
6:49 PM 24.8 °F 13.4 °F - N/A% - 8.0 mi WSW 12.7 mph - N/A   Mostly Cloudy
7:00 PM 26.6 °F 14.7 °F 21.2 °F 80% 29.80 in 10.0 mi WSW 15.0 mph - N/A   Mostly Cloudy
7:44 PM 26.6 °F 14.3 °F - N/A% - 5.0 mi West 16.1 mph - N/A Snow Light Snow Showers
8:00 PM 26 °F - 20 °F 68% 29.80 in 7 mi WSW 16.1 mph - - Snow Light Snow Showers
8:00 PM 26.6 °F 14.7 °F 19.4 °F 74% 29.80 in 7.0 mi WSW 15.0 mph 20.7 mph N/A Snow Light Snow Showers
8:30 PM 26.6 °F 13.8 °F - N/A% - 15.0 mi West 17.3 mph 25.3 mph N/A   Overcast
9:00 PM 24.8 °F 11.9 °F 15.8 °F 69% 29.81 in 15.0 mi West 16.1 mph 21.9 mph N/A   Overcast
10:00 PM 24.8 °F 12.9 °F 17.6 °F 74% 29.82 in 15.0 mi West 13.8 mph - N/A   Overcast
11:00 PM 24.8 °F 12.9 °F 17.6 °F 74% 29.82 in 15.0 mi West 13.8 mph 19.6 mph N/A   Overcast